Dewpoint
57 57 57 56 56 55 55 55 55 56 57 57 57 57 57 57 57 57 57 57 56 55 55 55 56 57 50 24 23 45 68 64 55 38 36 51 54 52 51 54 58 57 59 60 61 60 59
56 57 57 56 56 56 55 55 55 55 56 57 57 57 57 57 57 57 57 55 55 55 55 56 56 57 44 23 38 57 57 39 30 25 23 51 53 53 45 52 58 59 59 59 60 60 59
56 56 56 56 56 55 55 55 55 55 56 56 57 57 57 57 56 55 54 54 54 54 56 56 56 54 34 25 48 51 44 40 31 24 19 34 44 42 39 58 60 59 57 58 60 61 58
56 56 56 56 56 57 56 56 56 56 57 57 57 56 56 55 54 54 54 53 54 55 55 56 56 51 31 31 41 42 43 31 30 23 21 24 42 37 45 59 57 55 55 54 57 60 60
56 55 57 57 57 57 57 56 56 56 57 57 56 56 55 54 53 53 52 53 55 55 56 56 52 45 31 50 40 41 44 21 28 22 23 26 30 35 56 51 50 54 50 52 54 58 60
56 57 57 56 56 57 57 57 57 57 57 57 56 56 54 54 53 52 52 54 57 57 57 54 51 38 33 34 33 39 43 18 16 17 20 26 30 31 44 43 41 46 50 50 52 55 59
56 56 55 56 56 57 57 57 56 56 56 56 56 56 54 54 53 51 49 46 38 36 46 35 34 34 34 38 30 35 37 30 23 22 25 30 33 32 30 37 36 44 51 49 52 56 55
55 55 55 56 56 57 57 57 56 56 56 56 56 54 53 53 52 52 48 33 34 34 32 34 39 40 40 41 27 28 33 30 29 25 31 34 33 30 28 31 45 49 51 51 54 56 55
55 56 56 56 57 57 56 56 56 56 56 56 55 54 53 52 52 48 42 34 37 36 31 30 34 36 35 38 26 27 29 31 30 28 28 36 28 28 32 37 46 49 48 52 51 56 56
56 57 56 57 56 56 56 56 56 56 55 55 55 53 52 52 46 41 34 41 39 37 28 29 25 31 30 24 23 27 30 25 26 28 28 28 26 35 39 37 47 44 50 51 53 51 48
57 57 56 56 56 56 56 56 56 55 55 55 55 53 52 51 36 28 34 40 36 34 19 30 29 24 23 23 24 24 25 24 25 25 26 26 19 33 37 36 49 47 52 51 50 49 50
57 57 57 56 56 56 56 56 55 55 55 55 54 53 51 48 46 39 44 37 34 27 21 28 30 21 24 24 24 25 25 25 25 23 24 23 23 22 27 48 49 53 50 50 50 49 44
56 56 55 56 56 56 56 56 55 55 54 54 52 51 50 46 33 41 39 39 27 22 30 26 25 22 24 26 24 25 25 24 22 21 23 23 24 46 45 46 51 49 48 45 43 43 41
56 55 55 55 55 55 55 55 55 55 54 52 51 50 51 48 46 43 39 30 24 23 25 26 27 26 26 28 26 24 24 23 24 22 21 20 27 46 50 44 43 46 38 38 36 40 41
57 56 55 55 54 54 54 55 55 54 54 52 50 47 45 43 47 45 36 24 22 22 20 23 27 27 26 27 27 26 24 23 24 23 24 22 24 46 49 51 48 46 41 43 39 41 37
58 56 55 55 54 54 54 54 54 54 53 51 48 41 40 44 43 40 35 32 33 32 20 27 26 28 26 27 27 28 30 30 27 26 25 28 26 34 49 50 48 48 47 43 41 35 33
58 57 56 56 56 55 54 54 53 54 52 51 40 38 40 43 40 38 32 32 33 32 25 24 27 25 27 28 30 30 30 30 32 29 30 30 30 31 45 46 44 45 44 42 39 38 32
58 57 57 56 55 55 54 54 52 52 52 48 36 35 40 39 36 36 33 33 34 23 24 24 26 26 29 31 31 30 30 31 33 32 24 31 29 29 30 32 32 41 39 42 35 33 36
57 58 57 57 55 55 54 54 52 52 52 49 39 39 43 38 32 34 32 27 28 23 21 23 23 29 32 32 31 32 31 31 31 29 28 30 32 31 31 31 31 33 35 30 25 27 31
56 56 57 57 56 56 55 54 52 52 52 50 41 33 42 41 34 32 31 27 23 21 19 20 19 24 25 30 32 29 28 28 28 38 45 42 33 32 27 32 32 32 38 35 26 25 26
56 56 57 57 57 57 56 55 53 52 52 49 43 38 42 39 39 40 37 27 23 20 20 21 23 18 24 29 30 29 28 25 27 42 39 30 31 32 31 34 32 42 43 46 42 44 31
55 56 56 57 57 57 56 55 54 52 51 50 47 48 48 46 44 40 31 25 22 19 21 19 21 25 28 29 32 29 28 28 27 34 38 37 33 36 27 31 34 40 40 42 48 48 48
55 55 55 56 57 57 56 55 54 52 49 39 43 48 50 45 42 37 37 37 24 24 25 21 22 27 26 27 31 31 33 39 38 37 36 37 35 33 27 32 34 33 37 37 46 50 50
55 54 54 55 57 57 56 56 55 53 52 50 43 45 48 42 43 40 39 39 37 33 27 21 26 28 28 41 41 38 37 40 40 42 39 38 39 37 27 33 28 37 47 48 45 49 50
53 54 54 54 56 57 56 55 55 54 54 52 49 44 49 46 45 43 41 38 29 29 24 23 21 28 41 30 31 34 34 35 37 40 42 41 38 35 29 28 33 38 45 48 45 47 53
55 55 55 55 55 57 56 55 55 54 54 53 50 47 46 48 42 44 43 41 30 31 33 32 31 35 31 33 32 32 28 34 33 35 38 40 43 35 40 33 26 39 44 47 49 43 53
55 55 55 55 55 56 56 55 54 54 55 54 51 48 44 45 48 47 44 40 33 34 35 36 36 33 32 31 30 32 36 40 35 33 32 35 39 37 37 35 36 41 46 49 41 40 52
55 55 55 55 56 57 55 54 54 54 55 54 50 50 44 43 44 48 48 43 41 37 36 36 35 36 36 34 31 37 40 44 40 37 37 36 36 37 39 37 31 47 47 44 48 52 54
55 55 55 55 56 56 54 54 55 55 55 54 50 46 48 45 42 45 42 43 45 46 41 36 38 41 39 39 42 44 41 42 41 33 41 36 35 37 37 36 45 49 48 49 52 53 55
Lifted_Index
14 14 14 14 14 14 15 16 17 16 15 15 15 15 15 15 16 16 16 17 17 17 17 17 16 16 15 13 11 9 8 8 11 10 6 3 2 1 0 -1 -2 -2 -2 -2 -2 -2 -2
14 14 14 15 15 15 15 15 16 16 15 15 15 15 15 16 16 16 17 17 16 16 16 16 16 15 14 13 11 9 9 11 12 11 6 2 1 1 1 -1 -2 -2 -2 -1 -2 -2 -2
15 15 15 15 15 15 15 15 16 16 16 15 15 16 16 16 17 17 17 17 15 15 15 15 15 15 14 12 10 10 10 12 13 11 6 2 1 2 2 -0 -2 -2 -2 -1 -1 -1 -1
16 16 16 15 15 15 15 15 16 16 16 15 15 16 16 17 17 18 17 16 14 13 13 13 13 13 12 11 10 10 10 11 12 11 7 3 1 2 2 -1 -2 -2 -1 -1 -1 -1 -1
15 16 16 15 15 15 15 15 16 16 15 15 15 16 16 17 17 17 16 14 13 12 12 12 11 11 10 10 10 10 10 11 11 10 6 2 1 1 0 -1 -1 -1 -1 -1 -0 -0 -0
15 15 15 15 15 15 15 15 16 16 16 15 15 15 16 16 16 15 14 13 12 11 11 11 10 9 9 9 9 9 9 10 10 8 4 1 -0 0 -0 -0 -0 -0 -1 -0 0 0 0
15 15 16 15 15 15 15 15 15 16 16 15 15 15 16 16 15 13 12 11 11 10 10 10 9 9 8 8 8 8 8 8 8 7 3 -0 -1 -0 0 0 0 -0 -1 -0 0 0 0
15 15 16 16 15 15 15 15 15 15 15 15 14 14 15 15 13 12 11 10 10 9 9 9 8 8 8 8 8 7 7 6 6 5 2 -0 -1 -0 1 1 -0 -1 -2 -1 -1 -0 0
15 15 15 15 15 15 15 14 14 15 15 14 14 14 14 13 12 11 10 9 9 9 8 8 8 8 8 7 7 6 6 5 5 4 1 -0 -0 0 1 0 -1 -2 -2 -2 -1 -1 -0
14 14 15 15 15 15 15 14 14 14 14 14 13 13 13 12 11 10 9 9 8 8 7 7 7 7 7 7 6 6 5 5 5 4 2 1 1 1 0 -0 -1 -2 -2 -2 -2 -1 -1
12 12 13 14 15 15 15 14 13 13 14 13 12 12 12 11 10 10 9 8 7 6 5 5 6 7 7 6 5 5 5 4 4 4 3 2 2 2 1 -1 -2 -3 -3 -3 -2 -1 -1
11 11 12 13 14 14 14 14 13 13 13 13 11 11 11 11 10 10 9 8 7 6 5 5 5 6 5 4 4 4 4 4 4 4 4 3 3 2 0 -2 -3 -3 -3 -3 -2 -2 -1
10 10 11 11 12 13 14 14 13 13 13 12 11 10 10 10 10 9 8 7 6 5 5 5 5 5 4 3 3 3 3 3 4 4 3 3 2 0 -1 -2 -3 -3 -3 -2 -2 -2 -1
10 10 10 10 11 12 13 13 13 12 12 12 10 9 10 10 10 9 7 6 6 5 5 5 5 4 3 2 2 2 2 3 3 3 3 2 1 -2 -3 -3 -3 -3 -2 -2 -2 -1 -1
10 10 10 10 10 11 12 13 13 12 12 11 9 8 8 9 9 8 7 6 5 5 5 4 4 3 2 1 1 1 2 2 2 2 2 1 0 -2 -4 -4 -3 -3 -2 -2 -1 -1 -1
9 10 10 10 10 10 11 12 13 13 12 10 8 7 7 8 7 7 6 6 5 5 4 4 4 3 2 1 1 1 1 0 0 0 1 1 -0 -2 -4 -4 -4 -3 -3 -2 -1 -1 -1
9 9 9 10 10 10 10 11 12 12 11 10 8 6 6 7 7 6 6 5 5 5 4 4 4 3 3 2 1 1 0 -0 -0 -0 0 0 -0 -1 -3 -3 -3 -3 -3 -2 -2 -1 -1
8 8 9 9 9 9 9 10 11 12 11 10 8 6 6 6 6 6 5 5 5 4 4 4 4 3 3 2 2 1 0 0 -0 -0 -0 -0 -0 -1 -1 -2 -2 -2 -2 -2 -1 -1 -1
8 8 8 8 9 9 9 9 10 11 11 10 8 6 6 5 5 5 5 5 5 4 4 4 4 4 3 3 2 1 1 1 0 0 0 -0 -0 -1 -1 -1 -1 -1 -1 -1 -1 -0 -0
7 7 7 7 8 8 8 8 9 11 11 9 8 6 5 5 5 5 5 5 4 4 3 3 4 4 3 3 2 2 2 1 1 1 0 0 -0 -1 -1 -1 -1 -1 -2 -2 -1 -0 0
7 7 7 7 7 8 8 8 8 10 10 9 7 6 5 4 4 4 4 4 4 3 3 3 3 4 4 3 2 2 2 2 1 1 1 0 -0 -0 -0 -1 -1 -2 -3 -3 -2 -2 -1
6 6 7 6 7 7 8 8 8 9 10 9 7 6 4 4 4 4 4 4 3 3 3 3 3 3 3 3 3 3 3 2 2 1 1 1 0 0 0 -0 -1 -2 -3 -3 -3 -3 -3
5 5 6 6 6 7 8 8 7 8 9 9 8 6 5 4 3 3 4 3 3 3 3 3 3 3 3 3 3 3 3 3 2 1 1 0 0 0 0 -0 -1 -2 -2 -2 -3 -4 -4
4 5 6 7 7 7 7 7 6 7 8 10 9 8 5 4 3 3 3 3 3 3 3 3 3 3 3 3 3 3 2 2 2 2 1 1 0 0 0 0 -0 -1 -2 -3 -3 -4 -4
3 4 6 7 7 7 7 6 6 6 7 9 9 9 6 4 3 3 3 3 3 3 3 2 2 2 2 2 2 2 2 1 1 1 1 1 1 0 0 0 0 -1 -2 -3 -3 -3 -4
4 5 5 6 6 6 6 6 5 5 6 7 9 9 7 4 3 3 2 2 3 3 2 2 2 2 2 2 2 2 1 1 1 1 1 1 1 0 0 0 0 -0 -1 -2 -2 -3 -3
5 6 6 5 5 5 6 6 5 4 5 6 8 8 7 5 3 3 2 2 2 2 2 2 1 1 1 1 1 1 1 0 0 1 1 1 0 -0 -0 -0 -0 -0 -1 -2 -2 -2 -3
7 7 6 5 5 5 5 5 5 4 5 6 6 7 7 5 4 3 3 2 2 2 2 1 1 0 0 0 1 1 0 0 0 1 1 0 -0 -0 -1 -1 -0 -1 -1 -2 -2 -3 -3
8 7 6 5 5 5 5 5 4 5 5 6 6 6 7 6 5 4 3 2 2 2 2 1 0 0 -0 0 0 0 0 0 0 0 1 0 -0 -1 -1 -1 -1 -1 -1 -2 -2 -3 -4